Location: Bakhuizen
(52.8696°N, 5.4575°E)
Time: 09:18:03
(UTC+00:00)

Cosmos 1544 - Pass Details

Date: 11 May 2021
Orbit: 471 x 487 km, 82.5° (Epoch: 15 June)

Event Time Altitude Azimuth Distance (km) Brightness Sun altitude
Rises 21:29:47 0° 351° (N) 2,538 8.1 -14.1°
Reaches altitude 10° 21:31:54 10° 354° (N) 1,657 6.8 -14.2°
Maximum altitude 21:35:29 64° 77° (ENE) 533 3.1 -14.5°
Enters shadow 21:37:10 29° 151° (SSE) 906 3.8 -14.6°
